Walla Walla, WA

10:34 PM PDT on August 28, 2016 (GMT -0700)
Walla Walla Regional

Weather History for KALW - October, 2013

Change the Weather History Date:

Sunday, October 27, 2013

  Actual Average Record
Temperature  
Mean Temperature 49 °F -  
Max Temperature 55 °F 57 °F 70 °F (1981)
Min Temperature 43 °F 39 °F 24 °F (1971)
Degree Days  
Heating Degree Days 16    
Moisture  
Dew Point 43 °F    
Average Humidity 83    
Maximum Humidity 96    
Minimum Humidity 62    
Precipitation  
Precipitation 0.04 in - - ()
Sea Level Pressure  
Sea Level Pressure 29.82 in    
Wind  
Wind Speed 6 mph (SW)    
Max Wind Speed 16 mph    
Max Gust Speed -    
Visibility 5 miles    
Events Rain    
Averages and records for this station are not official NWS values.
T = Trace of Precipitation, MM = Missing Value Source: NWS Daily Summary

Daily Weather History Graph

Daily Weather History Graph

Search for Another Location

Airport or City:

Trip Planner

Search our weather history database for the weather conditions in past years. The results will help you decide how hot, cold, wet, or windy it might be!

Date:

Astronomy

Oct. 27, 2013 Rise Set
Actual Time 7:27 AM PDT 5:46 PM PDT
Civil Twilight 6:56 AM PDT 6:16 PM PDT
Nautical Twilight 6:21 AM PDT 6:51 PM PDT
Astronomical Twilight 5:46 AM PDT 7:26 PM PDT
Moon 12:07 AM PDT (10/27) 2:17 PM PDT (10/27)
Length of Visible Light 11h 20m
Length of Day
10h 18m
Last Quarter, 42% of the Moon is Illuminated
Oct 27
Last Quarter
Nov 3
New
Nov 9
First Quarter
Nov 17
Full
Nov 25
Last Quarter

Hourly Weather History & Observations

Time (PDT) Temp. Windchill Dew Point Humidity Pressure Visibility Wind Dir Wind Speed Gust Speed Precip Events Conditions
12:53 AM 43.0 °F - 39.9 °F 89% 30.07 in 5.0 mi Calm Calm - N/A   Haze
1:53 AM 48.0 °F - 43.0 °F 83% 30.03 in 7.0 mi South 5.8 mph - N/A   Haze
2:53 AM 43.0 °F - 39.9 °F 89% 30.01 in 6.0 mi Calm Calm - N/A   Haze
3:53 AM 45.0 °F 41.8 °F 41.0 °F 86% 29.98 in 6.0 mi SE 5.8 mph - N/A   Haze
4:53 AM 46.0 °F 41.9 °F 42.1 °F 86% 29.94 in 6.0 mi SSE 8.1 mph - N/A   Haze
5:53 AM 48.0 °F - 42.1 °F 80% 29.90 in 6.0 mi South 11.5 mph - N/A   Haze
6:53 AM 50.0 °F - 43.0 °F 77% 29.83 in 9.0 mi South 16.1 mph - N/A   Clear
7:53 AM 51.1 °F - 43.0 °F 74% 29.82 in 6.0 mi NW 10.4 mph - N/A   Haze
8:53 AM 51.1 °F - 45.0 °F 80% 29.82 in 4.0 mi ESE 9.2 mph - N/A   Haze
9:53 AM 54.0 °F - 46.0 °F 75% 29.80 in 6.0 mi WSW 9.2 mph - N/A   Haze
10:53 AM 55.9 °F - 43.0 °F 62% 29.78 in 8.0 mi SSW 15.0 mph - N/A   Clear
11:48 AM 51.8 °F - 42.8 °F 71% 29.78 in 8.0 mi WSW 12.7 mph - N/A   Overcast
11:53 AM 51.1 °F - 42.1 °F 71% 29.80 in 8.0 mi WSW 13.8 mph - N/A   Overcast
12:37 PM 51.8 °F - 42.8 °F 71% 29.77 in 10.0 mi SW 12.7 mph - N/A   Scattered Clouds
12:51 PM 51.8 °F - 42.8 °F 71% 29.77 in 9.0 mi SW 15.0 mph - N/A   Mostly Cloudy
12:53 PM 51.1 °F - 42.1 °F 71% 29.78 in 10.0 mi SW 13.8 mph - N/A   Mostly Cloudy
1:27 PM 51.8 °F - 42.8 °F 71% 29.76 in 10.0 mi SW 10.4 mph - N/A   Mostly Cloudy
1:38 PM 51.8 °F - 42.8 °F 71% 29.76 in 10.0 mi SW 12.7 mph - N/A   Mostly Cloudy
1:53 PM 51.1 °F - 42.1 °F 71% 29.77 in 10.0 mi SW 10.4 mph - N/A   Overcast
2:53 PM 50.0 °F - 42.1 °F 74% 29.78 in 6.0 mi WSW 5.8 mph - N/A   Haze
3:53 PM 50.0 °F - 42.1 °F 74% 29.79 in 6.0 mi Calm Calm - N/A   Haze
4:17 PM 51.8 °F - 42.8 °F 71% 29.78 in 6.0 mi SW 4.6 mph - N/A   Haze
4:33 PM 50.0 °F - 42.8 °F 76% 29.79 in 5.0 mi West 4.6 mph - N/A   Haze
4:44 PM 50.0 °F - 42.8 °F 76% 29.79 in 4.0 mi WNW 4.6 mph - N/A   Haze
4:53 PM 50.0 °F - 43.0 °F 77% 29.80 in 4.0 mi WNW 3.5 mph - 0.00 in Rain Light Rain
5:30 PM 48.2 °F - 44.6 °F 87% 29.80 in 2.0 mi West 5.8 mph - 0.01 in Rain Rain
5:53 PM 46.9 °F - 45.0 °F 93% 29.81 in 3.0 mi West 4.6 mph - 0.02 in Rain Light Rain
6:12 PM 46.4 °F 45.2 °F 44.6 °F 93% 29.80 in 2.5 mi WNW 3.5 mph - 0.00 in Rain Light Rain
6:53 PM 46.9 °F - 45.0 °F 93% 29.81 in 3.0 mi Calm Calm - 0.01 in Rain Light Rain
7:03 PM 46.4 °F 45.2 °F 44.6 °F 93% 29.80 in 2.5 mi SW 3.5 mph - 0.00 in   Overcast
7:18 PM 46.4 °F - 44.6 °F 93% 29.79 in 2.5 mi Calm Calm - 0.00 in   Overcast
7:53 PM 46.9 °F - 45.0 °F 93% 29.81 in 2.0 mi South 3.5 mph - 0.00 in   Overcast
8:05 PM 46.4 °F 45.2 °F 44.6 °F 93% 29.80 in 1.8 mi South 3.5 mph - N/A   Overcast
8:36 PM 46.4 °F 45.2 °F 44.6 °F 93% 29.79 in 1.5 mi SW 3.5 mph - N/A   Overcast
8:53 PM 46.0 °F 44.8 °F 45.0 °F 96% 29.81 in 1.5 mi SW 3.5 mph - N/A   Overcast
9:14 PM 46.4 °F - 44.6 °F 93% 29.79 in 1.5 mi Calm Calm - 0.00 in Rain Light Rain
9:32 PM 46.4 °F - 44.6 °F 93% 29.80 in 1.2 mi Calm Calm - 0.00 in Rain Light Rain
9:53 PM 46.0 °F - 45.0 °F 96% 29.80 in 1.0 mi Calm Calm - 0.01 in Rain Light Rain
10:53 PM 46.0 °F - 45.0 °F 96% 29.80 in 1.0 mi Calm Calm - 0.00 in   Overcast
11:36 PM 46.4 °F - 44.6 °F 93% 29.78 in 1.5 mi Calm Calm - N/A   Overcast
11:53 PM 46.0 °F - 45.0 °F 96% 29.79 in 2.0 mi Calm Calm - 0.00 in Rain Light Rain